Date,TemperatureHighF,TemperatureAvgF,TemperatureLowF,DewpointHighF,DewpointAvgF,DewpointLowF,HumidityHigh,HumidityAvg,HumidityLow,PressureMaxIn,PressureMinIn,WindSpeedMaxMPH,WindSpeedAvgMPH,GustSpeedMaxMPH,PrecipitationSumIn
2013-1-1,31,19,9,14,7,3,82,63,34,30.40,30.24,6,0,6,0.00
2013-1-2,34,20,11,10,5,0,67,54,28,30.52,30.35,12,0,12,0.00
2013-1-3,37,22,11,5,0,-4,63,41,19,30.54,30.40,5,0,5,0.00
2013-1-4,49,28,15,12,4,-4,67,38,18,30.41,30.15,5,0,5,0.00
2013-1-5,40,26,14,16,11,6,72,55,31,30.44,30.19,7,0,9,0.00
2013-1-6,55,34,18,18,9,0,57,38,16,30.41,30.00,5,0,6,0.00
2013-1-7,52,39,29,14,11,7,48,32,18,30.03,29.79,8,0,8,0.00
2013-1-8,54,40,30,20,14,5,62,36,22,30.20,29.77,9,0,9,0.00
2013-1-9,58,40,27,22,18,13,61,42,22,30.31,29.99,19,2,19,0.00
2013-1-10,53,44,34,18,12,5,42,28,14,29.99,29.39,15,3,15,0.00
2013-1-11,44,28,8,27,16,3,91,66,31,29.83,29.16,18,1,18,0.01
2013-1-12,14,6,-1,7,0,-6,84,75,62,30.36,29.83,9,0,9,0.00
2013-1-13,13,4,-3,2,-3,-9,79,72,60,30.51,30.36,8,1,8,0.00
2013-1-14,13,5,-1,3,-2,-6,82,75,59,30.50,30.37,1,0,7,0.00
2013-1-15,30,17,-2,17,2,-8,77,54,32,30.48,30.36,1,0,5,0.01
2013-1-16,50,33,22,22,19,13,69,58,31,30.39,30.25,4,0,5,0.09
2013-1-17,51,35,23,24,18,14,72,52,25,30.48,30.24,5,0,5,0.00
2013-1-18,58,40,27,17,9,5,58,31,13,30.24,30.04,7,0,7,0.00
2013-1-19,59,42,24,12,8,4,52,28,11,30.23,30.05,5,0,5,0.00
2013-1-20,29,26,24,11,10,9,54,50,45,30.21,30.19,2,0,2,0.00
2013-1-21,56,38,20,17,10,0,74,39,15,30.25,30.07,1,0,10,0.00
2013-1-22,64,43,28,6,1,-1,31,19,8,30.10,29.97,3,0,14,0.00
2013-1-23,61,45,36,14,4,-4,31,19,13,30.10,30.01,1,0,5,0.00
2013-1-24,64,48,35,27,15,4,47,28,12,30.03,29.82,3,0,12,0.00
2013-1-25,57,40,33,27,24,20,66,54,31,30.04,29.92,3,0,10,0.00
2013-1-26,35,33,32,25,24,23,75,70,65,29.98,29.92,3,0,3,0.00
2013-1-27,58,48,30,38,29,17,95,51,29,29.70,29.61,8,0,8,0.01
2013-1-28,58,39,26,30,25,19,93,62,27,29.76,29.36,15,1,15,0.00
2013-1-29,31,24,18,23,14,5,91,68,37,30.16,29.74,14,1,15,0.02
2013-1-30,38,26,10,14,10,4,82,54,31,30.16,30.06,15,1,19,0.00
2013-1-31,48,35,24,20,16,13,65,47,26,30.25,30.11,12,0,12,0.00
2013-2-1,51,36,25,22,17,13,70,48,24,30.31,30.12,21,1,21,0.00
2013-2-2,58,38,25,20,15,8,75,45,14,30.41,30.30,12,1,12,0.00
2013-2-3,46,34,30,16,16,14,53,48,28,30.35,30.07,6,0,6,0.00
2013-2-4,54,38,26,15,10,5,51,33,15,30.04,29.91,1,0,7,0.00
2013-2-5,59,43,28,19,16,12,55,34,18,30.12,29.86,12,2,12,0.00
2013-2-6,58,41,30,34,23,16,95,53,24,30.09,29.78,9,0,9,0.07
2013-2-7,48,35,24,31,24,12,93,68,23,30.25,30.09,11,1,11,0.07
2013-2-8,55,40,30,23,19,16,66,46,24,30.13,29.73,14,1,14,0.00
2013-2-9,36,30,22,29,21,15,88,70,53,29.73,29.59,12,1,12,0.01
2013-2-10,35,27,20,19,16,8,90,66,34,30.02,29.71,13,1,13,0.01
2013-2-15,37,25,14,18,14,9,80,63,35,30.54,30.45,4,1,16,0.00
2013-2-16,55,39,23,15,13,10,65,39,19,30.45,30.05,4,1,16,0.00
2013-2-17,63,44,31,23,7,0,73,26,9,30.04,29.48,5,2,17,0.00
2013-2-18,41,31,20,21,11,-1,82,48,17,30.17,29.70,4,1,14,0.00
2013-2-19,43,29,15,14,10,4,66,47,30,30.16,29.89,2,0,11,0.00
2013-2-20,37,26,19,30,19,13,91,74,52,29.89,29.68,1,0,8,0.00
2013-2-21,26,20,12,17,14,8,88,79,68,30.11,29.82,7,0,8,0.03
2013-2-22,34,22,11,19,14,6,86,70,48,30.18,30.05,7,0,7,0.01
2013-2-23,49,31,17,26,15,4,89,53,27,30.05,29.67,7,1,8,0.00
2013-2-24,28,26,24,26,24,22,93,92,89,30.15,29.75,15,2,15,0.00
2013-2-25,34,21,6,22,11,2,91,66,49,30.27,30.02,6,0,6,0.03
2013-2-26,34,24,19,24,18,9,90,78,57,30.20,29.97,16,2,16,0.00
2013-2-27,36,24,13,18,11,5,85,59,31,30.32,30.20,12,1,12,0.00
2013-2-28,44,29,12,15,8,0,69,43,20,30.36,30.24,13,1,16,0.00
2013-3-1,47,35,23,23,18,13,69,51,31,30.30,30.20,8,0,8,0.00
2013-3-2,60,43,28,27,23,18,71,47,24,30.28,29.92,7,0,7,0.00
2013-3-3,61,49,37,26,22,18,58,36,21,29.92,29.45,8,0,8,0.00
2013-3-4,38,28,14,27,20,8,92,74,57,30.26,29.47,14,1,14,0.01
2013-3-5,43,27,10,24,15,3,82,63,31,30.38,30.18,9,0,9,0.00
2013-3-6,60,40,21,29,22,11,86,54,15,30.18,29.76,10,0,10,0.00
2013-3-7,65,48,33,28,22,17,67,38,16,29.82,29.68,10,1,11,0.00
2013-3-8,47,37,29,34,29,23,92,73,51,29.77,29.57,5,0,5,0.00
2013-3-9,33,30,25,31,27,15,96,89,66,30.08,29.54,17,2,17,0.01
2013-3-10,38,29,18,23,18,14,88,67,41,30.19,30.08,13,0,15,0.04
2013-3-11,51,37,26,32,21,17,92,58,28,30.09,29.85,13,1,15,0.00
2013-3-12,42,31,24,30,25,20,94,79,58,30.26,30.08,9,1,9,0.02
2013-3-13,65,47,31,30,26,21,82,48,21,30.24,30.07,8,0,8,0.00
2013-3-14,42,42,41,28,28,28,58,58,58,30.10,30.10,0,0,1,0.00
2013-3-15,74,64,47,28,24,22,43,23,14,29.94,29.58,11,1,11,0.00
2013-3-16,53,47,41,39,32,25,73,58,37,29.68,29.55,11,0,11,0.00
2013-3-17,61,47,35,33,25,12,74,46,15,29.64,29.34,21,2,21,0.00
2013-4-6,63,54,43,36,25,21,52,34,23,29.76,29.64,3,1,17,0.00
2013-4-7,66,53,38,35,29,24,81,44,22,29.71,29.55,3,1,14,0.00
2013-4-8,70,49,27,43,27,22,90,49,17,29.66,29.22,8,2,23,0.00
2013-4-9,26,15,10,22,11,6,88,83,76,30.45,29.71,5,3,16,0.00
2013-4-10,24,16,5,15,9,1,83,74,62,30.45,30.18,3,1,10,0.01
2013-4-11,54,38,22,36,26,15,87,63,35,30.14,29.88,5,1,14,0.00
2013-4-12,60,44,32,38,31,20,87,65,24,29.94,29.83,20,1,20,0.01
2013-4-13,70,50,34,32,27,17,90,52,16,29.92,29.34,12,1,12,0.00
2013-4-14,52,45,35,41,16,8,95,33,18,29.72,29.35,17,2,18,0.12
2013-4-15,39,31,23,28,22,10,91,72,32,30.09,29.66,17,1,17,0.00
2013-4-16,46,32,23,30,26,21,94,79,53,30.10,29.88,17,2,17,0.01
2013-4-17,31,26,19,28,24,16,94,91,83,30.27,29.96,15,2,15,0.01
2013-4-18,35,25,14,20,14,8,88,64,43,30.35,30.26,10,1,11,0.00
2013-4-19,55,41,23,28,18,13,69,43,24,30.33,29.97,8,0,8,0.00
2013-4-20,60,46,34,36,28,22,71,52,28,29.97,29.82,10,0,10,0.01
2013-4-21,63,48,34,35,28,21,83,50,22,30.02,29.88,9,0,9,0.00
2013-4-22,55,36,23,38,28,20,90,73,45,30.31,29.78,19,2,19,0.00
2013-4-23,33,25,19,20,18,16,91,76,55,30.40,30.26,2,0,7,0.00
2013-4-24,54,43,25,24,20,13,77,43,21,30.36,30.21,9,1,11,0.00
2013-4-25,65,50,36,28,23,15,56,36,16,30.20,29.81,11,1,11,0.00
2013-4-26,65,51,33,28,25,20,77,40,20,30.14,29.91,10,1,10,0.00
2013-4-27,71,52,40,28,25,18,59,39,15,30.13,29.98,8,0,8,0.00
2013-4-28,78,63,44,34,26,21,41,27,15,29.89,29.63,4,0,14,0.00
2013-4-29,79,65,47,36,31,26,60,31,15,29.70,29.36,3,1,10,0.00
2013-4-30,60,53,39,41,34,21,88,51,26,29.87,29.38,6,2,19,0.00
2013-5-1,39,31,24,36,29,22,95,91,83,30.72,29.87,4,2,12,0.00
2013-5-2,45,33,22,24,20,16,91,63,32,30.85,30.53,1,0,8,0.00
2013-5-3,59,49,31,26,23,19,68,38,23,30.52,30.06,9,1,13,0.00
2013-5-4,59,48,33,34,28,25,75,48,31,30.10,30.02,11,1,11,0.00
2013-5-7,68,56,44,46,38,32,79,55,27,29.85,29.71,4,0,19,0.02
2013-5-8,61,47,43,46,43,38,95,84,55,30.01,29.79,5,0,13,0.06
2013-5-9,55,48,43,46,43,39,96,83,58,30.14,30.00,2,0,12,0.20
2013-5-10,65,52,37,42,38,33,89,62,33,30.19,30.11,3,1,13,0.00
2013-5-11,69,55,41,43,39,32,85,57,26,30.29,30.09,2,0,14,0.01
2013-5-12,76,63,45,42,36,33,70,42,22,30.09,29.92,2,0,9,0.00
2013-5-13,84,71,52,42,39,35,54,33,19,29.95,29.76,7,0,9,0.00
2013-5-14,86,68,55,45,40,36,55,38,18,29.76,29.63,21,1,21,0.00
2013-5-15,82,65,56,51,44,39,75,50,22,29.73,29.60,10,0,12,0.00
2013-5-16,65,54,51,49,46,42,79,72,46,29.69,29.64,4,0,4,0.00
2013-5-17,87,71,55,47,35,24,74,34,11,29.62,29.43,2,0,9,0.00
2013-5-18,77,66,50,41,34,23,64,32,19,29.61,29.46,10,0,10,0.00
2013-5-19,71,58,48,41,36,27,73,49,20,29.67,29.52,10,0,10,0.00
2013-5-20,64,52,46,48,42,33,92,70,34,29.90,29.66,13,0,13,0.01
2013-5-21,70,56,41,42,36,30,91,53,26,29.95,29.74,11,1,11,0.00
2013-5-22,77,61,42,48,38,34,81,48,22,29.86,29.67,22,0,22,0.00
2013-5-23,71,59,50,50,46,43,82,63,45,29.87,29.73,15,2,15,0.00
2013-5-24,89,70,54,56,42,25,82,47,12,29.80,29.60,17,1,18,0.00
2013-5-25,87,71,54,56,40,21,90,44,10,29.69,29.53,7,0,7,0.00
2013-5-26,87,69,53,47,38,26,63,37,12,29.64,29.53,13,0,13,0.00
2013-5-27,84,69,53,47,35,26,69,34,13,29.58,29.43,8,0,10,0.00
2013-5-28,82,66,48,48,39,32,73,42,18,29.55,29.28,13,1,13,0.00
2013-5-29,64,57,50,51,43,29,85,62,36,29.54,29.30,9,0,10,0.02
2013-5-30,71,59,43,36,31,23,70,38,18,29.68,29.50,18,1,18,0.01
2013-5-31,73,61,47,34,24,17,54,27,13,29.82,29.66,14,1,14,0.00
2013-6-1,69,57,42,40,36,23,77,47,28,30.04,29.82,12,1,12,0.00
2013-6-2,85,66,45,43,37,32,76,40,16,30.04,29.60,7,0,7,0.00
2013-6-3,92,76,58,40,34,29,35,22,12,29.58,29.38,8,1,14,0.00
2013-6-4,74,62,49,56,46,28,94,59,27,29.98,29.58,12,0,12,0.25
2013-6-5,56,51,45,48,46,43,96,84,72,30.06,29.96,3,0,7,0.02
2013-6-6,78,63,45,49,43,36,93,55,23,30.04,29.85,4,0,9,0.00
2013-6-7,85,67,50,48,42,37,77,44,22,29.90,29.55,9,0,11,0.00
2013-6-8,76,66,56,51,43,39,65,44,30,29.80,29.51,14,1,14,0.00
2013-6-9,89,71,50,48,40,34,73,38,17,29.82,29.65,6,0,6,0.00
2013-6-10,98,81,64,44,38,32,37,23,13,29.66,29.46,13,0,15,0.00
2013-6-11,100,81,60,46,35,28,52,23,9,29.59,29.38,11,0,12,0.00
2013-6-12,92,76,54,44,36,28,56,26,14,29.77,29.59,13,0,13,0.00
2013-6-13,74,64,57,54,50,35,88,64,25,29.75,29.72,5,0,5,0.00
2013-6-14,89,72,65,50,44,36,52,38,16,29.64,29.50,3,0,15,0.00
2013-6-15,81,68,56,54,48,44,74,50,30,29.79,29.61,7,0,7,0.00
2013-6-16,86,72,57,55,44,34,69,39,19,29.91,29.75,12,0,13,0.04
2013-6-17,80,67,51,49,43,38,70,45,25,29.91,29.79,6,0,6,0.00
2013-6-18,87,69,54,55,48,41,90,52,24,29.88,29.61,12,0,12,0.00
2013-6-19,93,74,55,56,46,35,82,47,15,29.70,29.34,16,1,16,0.00
2013-6-20,90,75,53,52,40,22,56,31,14,29.60,29.43,9,1,10,0.00
2013-6-21,97,77,56,57,42,27,76,38,9,29.59,29.41,9,0,11,0.00
2013-6-22,90,72,56,51,47,40,78,45,19,29.60,29.43,10,0,10,0.00
2013-6-23,88,67,53,57,49,36,92,58,19,29.73,29.53,11,0,11,0.25
2013-6-24,89,71,54,54,44,33,78,44,15,29.67,29.48,10,0,10,0.00
2013-6-25,92,76,58,48,40,32,60,30,15,29.70,29.50,7,0,7,0.00
2013-6-26,96,79,58,47,42,38,55,30,15,29.76,29.64,7,0,10,0.00
2013-6-27,96,80,61,52,45,40,64,31,17,29.87,29.71,7,0,8,0.00
2013-6-28,94,79,62,62,53,45,79,41,25,29.93,29.71,12,1,12,0.08
2013-6-29,83,72,60,60,54,46,82,55,31,29.87,29.80,9,0,9,0.00
2013-6-30,78,68,60,62,56,51,91,67,50,29.93,29.84,8,0,8,0.16
2013-7-1,80,68,56,59,53,45,91,62,32,30.02,29.93,6,0,6,0.01
2013-7-2,84,70,54,57,49,41,91,53,25,29.99,29.84,9,0,9,0.00
2013-7-3,88,72,55,52,46,39,76,44,21,29.84,29.59,8,0,9,0.00
2013-7-4,91,75,57,52,47,41,70,42,19,29.70,29.58,11,0,11,0.00
2013-7-5,94,74,60,61,51,45,74,47,24,29.60,29.49,8,0,8,0.01
2013-7-6,91,76,64,57,51,46,65,44,23,29.67,29.53,11,0,11,0.00
2013-7-7,88,74,62,61,52,47,70,48,27,29.75,29.65,12,0,12,0.01
2013-7-8,96,80,65,53,49,43,63,37,17,29.75,29.66,8,0,10,0.00
2013-7-9,94,78,61,52,46,39,61,36,16,29.83,29.73,9,0,9,0.00
2013-7-10,90,75,60,58,53,46,79,48,26,29.84,29.69,12,1,15,0.00
2013-7-11,99,75,62,58,54,47,76,53,18,29.78,29.58,13,1,13,0.00
2013-7-12,94,75,61,62,57,51,88,58,26,29.72,29.56,1,0,9,0.02
2013-7-13,94,75,62,64,59,52,95,64,27,29.83,29.67,14,0,14,0.13
2013-7-14,82,69,58,64,60,56,97,75,43,29.92,29.78,9,0,9,0.07
2013-7-15,77,68,62,64,58,45,96,73,45,29.92,29.83,10,0,12,0.08
2013-7-16,82,70,57,56,50,47,76,53,31,29.96,29.87,11,1,11,0.00
2013-7-17,88,74,60,56,52,46,79,51,26,29.95,29.80,11,1,13,0.00
2013-7-18,93,76,61,57,53,48,76,48,24,29.82,29.70,11,1,11,0.00
2013-7-19,83,72,62,58,56,52,80,59,38,29.85,29.78,9,0,9,0.00
2013-7-20,93,74,60,60,55,45,89,56,21,29.78,29.57,16,0,16,0.00
2013-7-21,91,77,64,60,52,43,72,45,23,29.67,29.57,12,0,12,0.00
2013-7-22,97,79,61,57,47,37,65,35,13,29.65,29.57,8,0,8,0.00
2013-7-23,91,78,62,56,46,39,58,35,19,29.78,29.60,8,0,8,0.00
2013-7-24,81,73,65,64,57,49,79,58,39,29.83,29.73,11,0,11,0.01
2013-7-25,81,65,57,60,55,49,89,71,34,30.02,29.75,8,0,9,0.04
2013-7-26,88,72,56,56,50,41,83,51,22,30.05,29.87,7,0,7,0.00
2013-7-27,82,70,60,61,54,48,94,59,39,29.88,29.69,10,0,10,0.07
2013-7-28,71,64,60,61,59,56,95,82,64,29.78,29.67,5,0,5,0.03
2013-7-29,72,65,58,62,58,53,93,79,59,29.95,29.68,9,0,9,0.00
2013-7-30,88,71,56,56,51,45,86,54,24,30.00,29.89,10,0,11,0.02
2013-7-31,92,74,58,62,52,44,86,51,20,30.02,29.82,5,0,9,0.02
2013-8-1,95,74,62,60,53,43,83,53,17,29.90,29.64,5,0,9,0.00
2013-8-2,94,74,59,60,51,46,75,49,21,29.75,29.63,8,0,14,0.14
2013-8-3,92,71,58,62,55,50,95,60,26,29.96,29.69,13,1,13,0.33
2013-8-4,90,71,56,59,53,42,95,60,21,29.91,29.80,10,0,10,0.01
2013-8-5,88,73,59,56,52,47,78,51,26,29.81,29.71,7,0,9,0.00
2013-8-6,89,73,59,56,49,40,76,47,20,29.77,29.67,12,0,12,0.00
2013-8-7,72,67,60,58,54,48,83,63,48,29.82,29.72,6,0,6,0.00
2013-8-8,77,63,54,59,56,51,97,78,47,29.96,29.76,6,0,7,0.03
2013-8-9,82,63,53,58,51,46,90,69,29,30.00,29.92,6,0,6,0.01
2013-8-10,87,67,52,62,50,40,90,61,21,30.01,29.84,8,0,8,0.04
2013-8-11,82,67,56,57,52,46,88,62,31,29.94,29.88,8,0,9,0.02
2013-8-12,81,65,54,59,54,49,95,69,41,30.02,29.88,8,0,8,0.00
2013-8-13,79,66,53,58,53,47,95,67,35,30.01,29.92,8,0,11,0.00
2013-8-14,81,66,53,56,50,40,96,60,29,29.98,29.86,6,0,6,0.00
2013-8-15,85,70,56,56,48,37,77,49,21,29.91,29.83,8,0,9,0.00
2013-8-16,91,73,56,53,46,37,76,44,17,29.90,29.80,6,0,6,0.00
2013-8-17,92,76,58,56,46,36,66,40,14,29.86,29.68,1,0,8,0.00
2013-8-18,94,81,60,57,48,41,83,34,17,29.79,29.67,8,0,8,0.00
2013-8-19,94,77,58,52,48,40,72,40,16,29.79,29.68,7,0,7,0.00
2013-8-20,96,79,65,52,45,37,54,33,14,29.73,29.59,8,0,8,0.00
2013-8-21,89,74,62,58,51,44,69,47,25,29.81,29.67,11,0,11,0.00
2013-8-22,83,69,61,64,58,53,90,70,40,29.95,29.80,14,0,14,0.00
2013-8-23,88,71,60,59,55,48,89,59,27,29.92,29.67,8,0,8,0.00
2013-8-24,86,69,56,62,54,48,86,62,30,29.85,29.72,7,0,8,0.00
2013-8-25,89,74,60,60,55,49,92,58,28,29.86,29.76,8,0,8,0.00
2013-8-26,91,75,61,60,55,50,81,54,27,29.83,29.74,8,0,8,0.00
2013-8-27,90,76,61,60,55,49,80,53,27,29.82,29.68,9,0,9,0.00
2013-8-28,92,75,59,58,52,44,81,48,22,29.80,29.70,4,0,5,0.00
2013-8-29,93,76,60,56,50,45,70,44,21,29.85,29.77,7,0,8,0.00
2013-8-30,91,74,65,61,54,50,67,52,26,29.84,29.75,9,0,9,0.00
2013-8-31,91,75,63,59,53,47,76,49,25,29.79,29.72,12,0,12,0.00
2013-9-1,80,69,63,61,56,51,77,64,49,29.89,29.79,7,0,7,0.00
2013-9-2,90,73,57,58,55,46,92,57,23,29.88,29.73,7,0,7,0.00
2013-9-3,93,78,64,56,53,47,74,45,24,29.80,29.71,6,0,6,0.00
2013-9-4,93,76,67,60,55,50,75,51,26,29.85,29.77,8,0,8,0.00
2013-9-5,96,77,63,58,52,45,76,47,21,29.90,29.77,8,0,9,0.00
2013-9-6,96,78,64,53,48,42,59,38,18,29.82,29.67,7,0,7,0.00
2013-9-7,94,75,60,54,47,38,71,42,16,29.79,29.67,6,0,6,0.00
2013-9-8,90,73,59,54,48,41,67,43,20,29.72,29.53,9,0,11,0.00
2013-9-9,64,60,57,54,52,51,85,76,67,29.66,29.59,2,0,2,0.00
2013-9-10,70,63,60,61,57,55,93,81,64,29.90,29.77,1,0,8,0.05
2013-9-11,73,63,59,63,60,58,98,93,59,29.98,29.92,0,0,6,0.00
2013-9-12,63,60,58,62,59,57,99,98,96,30.05,29.96,2,0,9,0.00
2013-9-13,74,64,58,63,58,55,99,84,60,29.99,29.68,10,0,10,0.00
2013-9-14,75,62,58,59,57,54,97,85,52,29.71,29.67,5,0,6,0.00
2013-9-20,73,60,49,52,46,41,89,63,32,30.02,29.85,0,0,6,0.00
2013-9-21,82,67,52,50,45,37,81,51,21,29.86,29.57,0,0,6,0.00
2013-9-22,79,64,55,55,47,42,88,58,33,29.56,29.33,1,0,18,0.10
2013-9-23,66,56,49,53,41,33,98,63,31,29.92,29.29,2,1,15,0.70
2013-9-24,76,59,43,40,36,31,68,44,24,30.02,29.70,1,0,8,0.00
2013-9-25,82,67,49,41,36,32,62,35,18,29.67,29.25,4,1,16,0.00
2013-9-26,69,58,44,50,44,32,90,64,32,29.55,29.30,1,0,8,0.00
2013-9-27,51,47,39,50,45,38,98,95,86,29.96,29.54,6,0,6,0.18
2013-9-28,67,50,34,39,33,24,98,58,22,30.13,29.96,6,0,6,0.01
2013-9-29,75,58,42,42,34,26,65,43,19,30.06,29.75,5,0,5,0.00
2013-9-30,82,66,52,44,39,33,57,39,22,29.77,29.56,5,0,5,0.00
2013-10-1,75,60,45,46,40,36,76,51,26,29.86,29.67,1,0,10,0.00
2013-10-2,76,60,45,47,41,36,83,54,26,29.79,29.67,1,0,7,0.00
2013-10-3,65,52,40,49,46,38,95,82,48,29.71,29.55,8,1,8,0.00
2013-10-4,48,37,29,47,33,23,97,86,56,30.22,29.61,10,1,10,0.19
2013-10-5,58,41,26,29,23,15,87,57,21,30.32,30.19,8,0,10,0.00
2013-10-6,67,49,32,39,28,19,69,47,23,30.27,30.15,6,0,6,0.00
2013-10-7,78,59,43,39,30,23,62,36,14,30.15,29.74,6,0,6,0.00
2013-10-8,78,63,49,40,34,26,66,36,15,29.74,29.46,7,0,8,0.00
2013-10-9,53,45,42,38,36,34,77,71,54,29.73,29.59,1,0,1,0.00
2013-10-17,40,39,37,31,30,29,74,71,69,30.10,30.05,6,0,6,0.00
2013-10-18,42,35,30,34,29,26,96,79,57,30.46,30.09,9,0,9,0.15
2013-10-19,64,46,31,28,24,20,78,45,20,30.44,30.11,8,0,8,0.00
2013-10-20,47,40,33,37,32,24,96,73,49,30.37,30.06,4,0,11,0.08
2013-10-21,56,41,28,36,29,23,96,67,29,30.50,30.37,10,0,11,0.00
2013-10-22,63,48,35,35,30,26,73,52,28,30.45,30.31,5,0,5,0.00
2013-10-23,64,50,38,36,32,27,73,52,30,30.36,30.28,8,0,8,0.00
2013-10-24,55,43,32,40,35,30,93,75,55,30.47,30.35,5,0,5,0.00
2013-10-25,68,48,33,40,33,30,91,62,26,30.45,30.28,6,0,6,0.00
2013-10-26,61,48,34,39,34,31,90,61,33,30.53,30.32,5,0,5,0.00
2013-10-27,69,52,38,33,28,23,67,42,19,30.32,29.97,5,0,5,0.00
2013-10-28,44,36,32,35,31,25,96,84,51,30.31,29.99,7,0,8,0.00
2013-10-29,44,36,32,35,32,31,96,86,64,30.30,30.13,6,0,6,0.01
2013-10-30,55,40,32,38,33,24,98,81,31,30.14,30.02,11,0,11,0.06
2013-10-31,54,40,27,30,24,18,95,57,26,30.16,30.07,15,1,15,0.00
2013-11-1,49,41,32,32,26,20,78,56,34,30.45,30.15,9,0,9,0.00
2013-11-2,69,47,28,28,22,11,77,42,15,30.47,29.94,8,0,8,0.00
2013-11-3,68,55,35,28,19,10,76,28,13,29.94,29.60,14,1,14,0.00
2013-11-4,46,36,28,29,22,13,89,60,33,30.21,29.92,11,1,11,0.00
2013-11-5,41,32,23,25,16,6,79,51,29,30.49,30.17,10,1,10,0.00
2013-11-6,52,37,22,18,12,1,51,36,22,30.65,30.47,18,1,18,0.00
2013-11-7,61,45,32,24,19,14,50,36,22,30.66,30.21,5,0,6,0.00
2013-11-8,66,52,39,25,20,14,45,29,17,30.21,29.94,8,0,8,0.00
2013-11-9,66,49,36,32,25,18,76,42,21,30.41,30.14,6,0,7,0.00
2013-11-10,67,48,35,29,24,19,77,45,17,30.43,30.33,5,0,5,0.00
2013-11-11,67,41,29,33,25,19,93,59,16,30.88,30.38,11,0,13,0.00
2013-11-12,61,44,29,31,27,24,93,57,25,30.89,30.59,7,1,8,0.00
2013-11-13,69,44,34,25,18,12,57,37,11,30.59,30.17,6,0,6,0.00
2013-11-14,57,48,41,34,28,16,67,48,29,30.21,29.91,12,1,12,0.00
2013-11-15,50,40,38,30,22,13,62,48,27,29.91,29.84,6,0,8,0.00
2013-11-16,59,45,33,33,23,15,79,46,19,29.61,29.34,3,1,14,0.00
2013-11-17,54,42,33,28,20,16,68,42,22,30.20,29.62,4,1,17,0.00
2013-11-18,64,45,31,20,14,12,51,31,13,30.28,30.12,2,0,8,0.00
2013-11-19,58,47,33,25,18,11,45,32,17,30.11,29.79,1,0,6,0.00
2013-11-20,58,45,28,26,24,22,87,46,25,30.06,29.80,14,1,16,0.00
2013-11-21,28,16,12,25,12,6,90,82,75,30.97,30.06,8,1,11,0.00
2013-11-22,34,26,15,21,16,9,78,66,40,30.98,30.84,6,0,6,0.01
2013-11-23,37,29,25,20,15,6,73,56,44,30.90,30.56,8,1,8,0.00
2013-11-24,36,29,23,27,22,16,86,73,55,30.56,30.23,10,0,10,0.00
2013-11-25,37,33,27,29,24,17,89,69,45,30.53,30.27,12,1,13,0.00
2013-11-26,47,34,24,26,21,17,85,60,32,30.66,30.46,7,0,7,0.00
2013-11-27,64,43,31,22,19,14,67,41,17,30.46,30.17,7,0,7,0.00
2013-11-28,52,36,27,27,23,19,76,61,34,30.34,30.25,5,0,5,0.00
2013-11-29,62,42,28,25,21,18,75,48,20,30.33,30.24,5,0,7,0.00
2013-11-30,59,41,28,20,15,12,60,39,17,30.32,30.23,5,0,5,0.00
2013-12-1,56,42,29,25,17,13,54,38,23,30.30,30.00,9,0,11,0.00
2013-12-2,61,49,39,25,22,19,49,35,22,30.00,29.60,14,1,14,0.00
2013-12-3,59,34,11,30,18,6,86,57,24,29.90,29.49,17,1,17,0.00
2013-12-4,11,6,-4,7,0,-10,83,78,73,30.57,29.90,9,1,9,0.00
2013-12-5,9,-1,-8,0,-7,-14,80,73,63,30.73,30.54,5,0,5,0.01
2013-12-6,9,0,-7,-2,-7,-14,79,72,57,30.82,30.71,5,0,5,0.00
2013-12-7,10,2,-7,2,-4,-13,80,75,67,30.79,30.33,5,0,5,0.00
2013-12-8,21,9,1,9,2,-4,81,73,59,30.48,30.22,6,0,6,0.00
2013-12-9,25,14,2,3,-1,-6,81,55,26,30.59,30.46,11,0,11,0.00
2013-12-10,47,29,9,18,8,-6,66,44,25,30.58,30.24,10,0,10,0.00
2013-12-11,42,25,13,20,13,7,82,63,37,30.63,30.50,10,1,10,0.00
2013-12-12,50,28,20,12,7,4,57,43,20,30.62,30.50,6,0,6,0.00
2013-12-13,51,32,21,20,14,9,67,50,23,30.37,30.02,4,0,10,0.00
2013-12-14,43,32,21,20,16,13,83,56,30,30.51,30.38,1,0,6,0.00
2013-12-15,57,42,24,22,17,13,68,39,22,30.42,30.28,10,0,10,0.00
2013-12-16,62,47,34,22,16,10,51,30,15,30.32,30.18,12,0,12,0.00
2013-12-17,62,44,29,19,16,13,54,34,17,30.44,30.18,5,0,6,0.00
2013-12-18,67,50,42,20,16,13,38,26,13,30.18,29.73,7,0,7,0.00
2013-12-19,49,35,16,25,20,13,90,56,31,30.01,29.57,13,1,13,0.00
2013-12-20,26,21,16,21,18,13,91,87,79,30.03,29.94,5,0,5,0.00
2013-12-21,32,23,15,22,18,12,91,83,65,30.20,29.86,6,0,6,0.00
2013-12-22,41,28,17,20,14,9,92,63,29,30.48,30.21,12,1,12,0.01
2013-12-23,47,29,15,21,17,11,88,64,30,30.56,30.38,9,0,9,0.00
2013-12-24,56,37,23,27,21,14,73,53,25,30.45,30.13,15,1,15,0.00
2013-12-25,44,30,16,14,8,4,67,42,20,30.67,30.43,8,0,9,0.00
2013-12-26,52,36,24,15,11,6,50,36,19,30.52,30.24,6,0,8,0.00
2013-12-27,59,38,31,21,16,12,50,41,21,30.25,29.97,5,0,6,0.00
2013-12-28,60,38,20,26,20,15,91,53,23,30.17,29.74,15,1,15,0.00
2013-12-29,34,23,12,19,13,8,88,68,37,30.27,30.04,7,0,7,0.12
2013-12-30,47,38,25,17,14,10,58,39,24,30.26,30.07,12,1,12,0.00
2013-12-31,56,41,31,22,18,11,56,41,25,30.07,29.84,5,0,7,0.00
2014-1-1,37,33,26,30,25,20,94,76,52,30.28,29.80,12,1,13,0.01
2014-1-2,50,38,19,21,18,11,85,46,23,30.38,30.04,5,0,7,0.00